DW8873 Weather Reports


Display with metric or nautical units.
time (UTC)temp
F
wind
direction
speed
MPH
gust
MPH
rain 1hr
in
rain 24hr
in
rain mn
in
humidity
%
barometer
mb
20260507012812 59 284 2.0 12.0 0.00 0.00 0.00 52 1013.6
20260507011811 59 264 2.0 11.0 0.00 0.00 0.00 55 1013.6
20260507010738 59 273 4.0 12.0 0.00 0.00 0.00 54 1013.6
20260507005736 61 274 2.0 15.0 0.00 0.00 0.00 53 1013.9
20260507004735 66 261 4.0 15.0 0.00 0.00 0.00 48 1013.6
20260507003733 67 84 0.0 0.0 0.00 0.00 0.00 53 1013.3
20260507002731 66 256 0.0 0.0 0.00 0.00 0.00 52 1013.3
20260507001729 66 335 0.0 0.0 0.00 0.00 0.00 54 1013.3
20260507000656 67 289 0.0 4.0 0.00 0.00 0.00 52 1013.3
20260506235655 67 306 0.0 4.0 0.00 0.00 0.00 52 1013.3
20260506234653 68 294 2.0 6.0 0.00 0.00 0.00 52 1013.3
20260506233651 68 340 2.0 6.0 0.00 0.00 0.00 52 1013.3
20260506232650 67 25 1.0 5.0 0.00 0.00 0.00 55 1013.3
20260506231546 67 15 1.0 6.0 0.00 0.00 0.00 56 1013.3
20260506230545 67 24 2.0 3.0 0.00 0.00 0.00 56 1013.3
20260506225543 66 337 1.0 3.0 0.00 0.00 0.00 60 1013.3
20260506224542 65 337 1.0 5.0 0.00 0.00 0.00 61 1013.3
20260506223540 65 34 1.0 3.0 0.00 0.00 0.00 62 1013.3
20260506222539 63 343 1.0 2.0 0.00 0.00 0.00 66 1013.3
20260506221537 62 343 1.0 2.0 0.00 0.00 0.00 70 1013.3
20260506220536 60 343 1.0 2.0 0.00 0.00 0.00 74 1013.3
20260506215535 58 343 1.0 2.0 0.00 0.00 0.00 76 1013.2
20260506214533 56 343 1.0 2.0 0.00 0.00 0.00 82 1012.9
20260506213531 55 343 0.0 2.0 0.00 0.00 0.00 86 1012.9
20260506212529 54 343 0.0 2.0 0.00 0.00 0.00 88 1012.9
20260506211528 52 343 1.0 2.0 0.00 0.00 0.00 91 1012.9
20260506210526 51 343 0.0 1.0 0.00 0.00 0.00 90 1012.9
20260506205524 51 343 1.0 1.0 0.00 0.00 0.00 89 1012.9
20260506204523 51 343 0.0 2.0 0.00 0.00 0.00 89 1012.9
20260506203522 51 343 0.0 2.0 0.00 0.00 0.00 90 1012.5
20260506202520 52 343 0.0 1.0 0.00 0.00 0.00 89 1012.6
20260506201448 52 343 0.0 2.0 0.00 0.00 0.00 89 1012.6
20260506200446 52 343 1.0 2.0 0.00 0.00 0.00 89 1012.6
20260506195413 52 343 1.0 2.0 0.00 0.00 0.00 89 1012.6
20260506194411 51 343 0.0 1.0 0.00 0.00 0.00 90 1012.9
20260506193410 52 343 1.0 1.0 0.00 0.00 0.00 90 1012.9
20260506192408 52 343 0.0 1.0 0.00 0.00 0.00 91 1012.9
20260506191406 52 343 0.0 1.0 0.00 0.00 0.00 92 1012.6
20260506190405 52 343 1.0 1.0 0.00 0.00 0.00 92 1012.6
20260506185403 52 343 0.0 1.0 0.00 0.00 0.00 92 1012.2
20260506184401 53 343 0.0 0.0 0.00 0.00 0.00 93 1012.2
20260506183400 53 343 0.0 0.0 0.00 0.00 0.00 93 1012.2
20260506182358 53 343 0.0 1.0 0.00 0.00 0.00 93 1012.2
20260506181357 54 343 0.0 1.0 0.00 0.00 0.00 93 1012.2
20260506180356 54 343 0.0 0.0 0.00 0.00 0.00 93 1012.2
20260506175323 54 343 0.0 0.0 0.00 0.00 0.00 93 1012.2
20260506174321 54 343 0.0 0.0 0.00 0.00 0.00 93 1012.2
20260506173319 55 343 0.0 0.0 0.00 0.00 0.00 94 1012.2
20260506172317 55 343 0.0 1.0 0.00 0.00 0.00 93 1012.6
20260506171315 55 343 0.0 1.0 0.00 0.00 0.00 93 1012.6
20260506170314 55 343 0.0 0.0 0.00 0.00 0.00 93 1012.6
20260506165241 56 343 0.0 1.0 0.00 0.00 0.00 93 1012.6
20260506164240 56 343 0.0 1.0 0.00 0.00 0.00 93 1012.6
20260506163238 56 343 0.0 2.0 0.00 0.00 0.00 93 1012.9
20260506162236 56 343 1.0 2.0 0.00 0.00 0.00 93 1012.9
20260506161235 56 343 0.0 0.0 0.00 0.00 0.00 93 1012.9
20260506160202 57 343 0.0 0.0 0.00 0.00 0.00 93 1013.3
20260506155201 57 343 0.0 0.0 0.00 0.00 0.00 93 1013.3
20260506154159 57 343 0.0 0.0 0.00 0.00 0.00 93 1013.3
20260506153157 58 343 0.0 0.0 0.00 0.00 0.00 93 1013.3
20260506152155 58 343 0.0 0.0 0.00 0.00 0.00 93 1013.3
20260506151153 58 343 0.0 0.0 0.00 0.00 0.00 93 1013.6
20260506150152 58 343 0.0 0.0 0.00 0.00 0.00 92 1013.6
20260506145048 58 343 0.0 0.0 0.00 0.00 0.00 92 1013.6
20260506144015 59 343 0.0 0.0 0.00 0.00 0.00 92 1013.6
20260506142942 59 343 0.0 0.0 0.00 0.00 0.00 92 1013.6
20260506141941 59 343 0.0 0.0 0.00 0.00 0.00 91 1013.6
20260506140939 59 343 0.0 0.0 0.00 0.00 0.00 91 1013.6
20260506135938 59 343 0.0 1.0 0.00 0.00 0.00 91 1013.6
20260506134936 60 343 0.0 3.0 0.00 0.00 0.00 91 1013.6
20260506133935 60 343 1.0 4.0 0.00 0.00 0.00 92 1013.6
20260506132934 60 343 1.0 2.0 0.00 0.00 0.00 92 1013.6
20260506131932 60 343 0.0 1.0 0.00 0.00 0.00 91 1014.0
20260506130900 60 343 0.0 2.0 0.00 0.00 0.00 91 1014.0
20260506125756 60 343 0.0 1.0 0.00 0.00 0.00 91 1014.0
20260506124754 60 343 1.0 1.0 0.00 0.00 0.00 91 1014.3
20260506123753 60 343 0.0 0.0 0.00 0.00 0.00 91 1014.3
20260506122752 60 343 0.0 1.0 0.00 0.00 0.00 90 1014.6
20260506121751 60 343 0.0 1.0 0.00 0.00 0.00 89 1014.6
20260506120749 61 343 0.0 3.0 0.00 0.00 0.00 89 1015.0
20260506115748 61 343 1.0 4.0 0.00 0.00 0.00 88 1015.0
20260506114746 61 343 2.0 4.0 0.00 0.00 0.00 89 1015.0
20260506113713 61 343 1.0 6.0 0.00 0.00 0.00 89 1015.0
20260506112712 61 343 1.0 6.0 0.00 0.00 0.00 88 1015.0
20260506111711 61 343 2.0 6.0 0.00 0.00 0.00 89 1015.0
20260506110709 61 348 2.0 5.0 0.00 0.00 0.00 88 1015.0
20260506105707 62 333 1.0 5.0 0.00 0.00 0.00 88 1015.3
20260506104706 62 345 2.0 5.0 0.00 0.00 0.00 87 1015.3
20260506103704 62 335 1.0 3.0 0.00 0.00 0.00 87 1015.3
20260506102703 63 335 1.0 3.0 0.00 0.00 0.00 86 1015.3
20260506101702 63 335 1.0 3.0 0.00 0.00 0.00 86 1015.3
20260506100700 63 334 1.0 3.0 0.00 0.00 0.00 86 1015.3
20260506095658 63 334 0.0 2.0 0.00 0.00 0.00 85 1015.3
20260506094657 63 334 1.0 3.0 0.00 0.00 0.00 85 1015.3
20260506093655 63 334 1.0 3.0 0.00 0.00 0.00 84 1015.3
20260506092654 64 334 1.0 2.0 0.00 0.00 0.00 83 1015.3
20260506091652 64 334 0.0 3.0 0.00 0.00 0.00 81 1015.3
20260506090651 64 334 1.0 3.0 0.00 0.00 0.00 79 1015.3
20260506085649 65 334 1.0 5.0 0.00 0.00 0.00 78 1015.3
20260506084648 65 339 2.0 5.0 0.00 0.00 0.00 78 1015.3
20260506083646 65 351 2.0 5.0 0.00 0.00 0.00 77 1015.3
20260506082645 66 0 1.0 5.0 0.00 0.00 0.00 76 1015.3
20260506081644 66 6 1.0 5.0 0.00 0.00 0.00 75 1015.3
20260506080643 66 17 1.0 2.0 0.00 0.00 0.00 75 1015.3
20260506072636 67 87 1.0 3.0 0.00 0.00 0.00 73 1015.3
20260506071635 67 105 1.0 4.0 0.00 0.00 0.00 73 1015.3
20260506070633 67 105 2.0 5.0 0.00 0.00 0.00 73 1014.9
20260506061523 69 18 2.0 6.0 0.00 0.00 0.00 71 1015.3
20260506060522 69 23 3.0 5.0 0.00 0.00 0.00 69 1015.6
20260506050441 70 68 3.0 6.0 0.00 0.00 0.00 65 1016.0
20260506044407 70 50 3.0 6.0 0.00 0.00 0.00 64 1016.0
20260506043405 70 25 1.0 6.0 0.00 0.00 0.00 65 1016.0
20260506042404 71 104 2.0 4.0 0.00 0.00 0.00 63 1016.0
20260506041402 71 111 1.0 3.0 0.00 0.00 0.00 62 1016.3
20260506040329 72 113 2.0 3.0 0.00 0.00 0.00 60 1016.3
20260506035327 72 120 2.0 3.0 0.00 0.00 0.00 57 1016.3
20260506034326 73 141 1.0 3.0 0.00 0.00 0.00 57 1016.7
20260506033324 73 141 2.0 3.0 0.00 0.00 0.00 56 1016.7
20260506032323 73 127 0.0 3.0 0.00 0.00 0.00 57 1016.7
20260506031321 73 124 2.0 3.0 0.00 0.00 0.00 56 1017.0
20260506030320 74 120 1.0 3.0 0.00 0.00 0.00 53 1017.0
20260506025247 74 17 1.0 3.0 0.00 0.00 0.00 54 1017.4
20260506024246 73 17 1.0 3.0 0.00 0.00 0.00 56 1017.3
20260506023244 73 224 0.0 2.0 0.00 0.00 0.00 55 1017.7
20260506022211 72 224 1.0 2.0 0.00 0.00 0.00 55 1018.0
20260506021210 72 222 1.0 2.0 0.00 0.00 0.00 55 1018.0
20260506020208 73 222 0.0 2.0 0.00 0.00 0.00 53 1018.4
20260506015207 73 148 1.0 3.0 0.00 0.00 0.00 52 1018.4
20260506014205 73 147 1.0 3.0 0.00 0.00 0.00 52 1018.7
20260506013204 72 204 1.0 4.0 0.00 0.00 0.00 53 1018.7